Find Starlink 37901

NORAD ID: 69960 Int'l Des: 2026-157 Owner: SPXS Country: US Constellation: starlink operational
LEOCIRCULAR

当前视图

正在加载3D地球...

About Starlink 37901

Starlink 37901 (NORAD 69960) is a starlink constellation satellite (v2 mini) launched Jul 9, 2026 by SPXS of US. It operates in LEO, CIRCULAR orbit with a mass of 575.00 kg.

即将过境

Passes for default location (London). Set your location on the main map for personalized predictions.

高度历史

Loading altitude history...

两行轨道根数

1 69960U 26157T 26237.66668980 .00003820 00000-0 12415-3 0 9999
2 69960 53.1601 94.6835 0001287 95.2582 274.9709 15.34394957 6040
Epoch: Aug 25, 2026 • Age: 15 hours

当前状态

高度 462.5 km
远地点 / 近地点 N/A
速度 7.64 km/s
星下点 13.12°N, 173.76°W
发射日期 Jul 9, 2026
运行时间 0.1 years
类型 internet

技术详情

分类 Payload
质量 575.00 kg
干质量 530.00 kg
总质量 575.00 kg
长度 0.30 m
直径 4.10 m
跨度 29.00 m
形状 Box + pan
制造商 SPXS
平台类型 Starlink V2MO
阶段状态 In Orbit
所有者/国家 SPXS/US

Most Searched